Temperature
19 19 19 19 18 18 19 20 20 21 22 22 22 21 20 19 19 18 18 18 18 19 18 18 18 18 18 18 18 18 18 18 18 18 18 18 18 18 18 18 18 18 18 18 18 18 18 18 18
19 19 19 19 18 19 19 20 21 22 22 22 22 21 20 19 19 18 18 18 18 18 18 18 18 18 18 18 18 18 18 18 18 18 18 18 17 17 17 17 17 17 17 17 17 17 18 18 18
19 19 19 18 19 19 20 21 21 23 23 23 22 21 20 19 19 18 18 18 18 18 18 18 18 18 18 18 18 18 18 17 17 17 17 17 17 17 17 17 17 17 17 17 17 17 17 17 18
19 19 19 18 20 20 21 21 22 23 23 22 21 20 20 19 19 19 18 19 19 18 18 18 18 18 18 18 17 17 17 17 17 17 17 17 17 17 16 16 16 16 17 17 17 17 17 17 17
19 19 18 19 20 21 21 22 22 22 22 21 21 19 19 19 19 19 19 19 19 19 18 18 18 18 18 18 17 17 17 17 17 17 16 16 16 16 16 16 16 16 16 16 17 17 17 17 17
20 18 18 19 20 21 21 22 23 22 21 21 20 19 19 19 19 19 19 19 19 19 18 18 18 18 18 17 17 17 17 17 17 16 16 16 16 16 16 16 16 16 16 16 16 16 16 16 16
19 18 19 19 20 21 22 23 23 22 22 21 21 19 19 19 19 19 19 19 19 19 18 18 18 18 18 17 17 17 17 17 16 16 16 16 16 16 16 15 15 15 15 15 16 16 16 16 16
19 17 19 19 20 20 22 23 23 23 22 22 21 19 19 19 19 19 19 19 19 19 18 18 18 18 18 17 17 17 17 16 16 16 16 16 16 16 15 15 15 15 15 15 15 15 16 16 16
20 17 18 19 20 21 22 23 23 23 22 22 21 21 20 20 19 19 19 19 19 19 19 18 18 18 18 17 17 17 17 16 16 16 16 16 16 16 15 15 15 15 15 15 15 15 15 16 16
19 18 19 20 20 21 22 22 23 22 21 21 21 21 20 20 20 20 19 19 19 19 19 18 18 18 18 18 17 17 17 16 16 16 16 16 16 15 15 15 15 15 15 15 15 15 15 15 16
19 18 19 21 21 22 22 22 23 21 20 20 20 20 20 20 20 20 20 20 19 19 19 19 18 18 18 18 17 17 17 17 16 16 16 16 16 15 15 15 15 15 15 15 15 15 15 15 15
19 20 20 21 22 22 22 22 22 22 22 22 22 21 21 20 20 20 20 20 20 19 19 19 19 18 18 18 18 17 17 17 16 16 16 16 15 15 15 15 15 15 15 15 15 15 15 15 15
19 20 21 22 22 22 22 22 22 22 22 22 22 21 21 21 21 21 20 20 20 20 19 19 19 19 18 18 18 17 17 17 17 16 16 16 15 15 15 15 15 14 14 14 14 15 15 15 15
21 21 21 22 22 22 22 22 22 22 22 22 22 22 21 21 21 21 21 21 20 20 20 20 19 19 18 18 18 17 17 17 17 16 16 16 15 15 15 15 14 14 14 14 14 14 15 15 15
21 21 21 21 22 22 22 21 21 22 22 22 22 22 22 22 22 21 21 21 21 20 20 20 19 19 19 18 18 17 17 17 16 16 16 15 15 15 15 15 14 14 14 14 14 14 15 15 15
20 20 19 21 22 22 22 20 21 23 22 22 22 22 22 22 22 22 22 21 21 21 20 20 19 19 19 18 18 17 17 17 16 16 16 15 15 15 15 14 14 14 14 14 14 14 15 15 15
19 19 19 21 22 22 21 20 21 22 22 22 22 22 22 22 22 22 22 22 21 21 21 20 20 19 19 18 18 17 17 17 16 16 16 15 15 15 14 14 14 14 14 14 14 14 14 15 15
18 19 20 20 21 21 21 20 20 22 22 21 22 22 22 22 22 22 22 22 21 21 21 20 20 19 19 18 18 17 17 17 16 16 16 15 15 15 14 14 14 14 14 14 14 14 14 14 15
19 19 20 20 22 21 20 20 20 21 21 21 21 21 22 22 22 22 22 21 21 21 21 20 20 19 19 18 18 17 17 16 16 16 16 15 15 15 15 14 14 14 14 14 14 14 14 14 15
19 19 19 21 22 21 20 20 20 20 21 21 21 21 22 22 22 22 22 22 21 21 21 20 20 19 19 18 18 17 17 16 16 16 16 15 15 15 15 14 14 14 14 14 14 14 14 14 14
19 19 20 20 21 21 20 19 19 20 20 21 21 21 22 22 22 22 21 21 21 21 21 20 20 19 19 18 18 17 17 16 16 16 16 15 15 15 15 15 14 14 14 14 14 14 14 14 14
20 21 21 21 19 19 20 18 19 19 19 19 20 21 21 21 21 21 21 21 21 21 20 20 20 19 19 18 18 17 17 16 16 16 16 15 15 15 15 15 14 14 14 14 14 14 14 14 14
20 21 21 20 19 18 19 18 19 19 19 19 19 20 21 21 21 21 21 21 21 20 20 20 19 19 19 18 18 17 17 16 16 16 16 16 15 15 15 15 15 14 14 14 14 14 14 14 14
20 20 19 18 18 18 19 18 19 18 19 19 19 20 20 21 21 21 21 21 20 20 20 20 19 19 18 18 18 17 17 16 16 16 16 16 15 15 15 15 15 15 14 14 14 14 14 14 14
20 18 18 18 18 18 19 19 18 19 19 19 19 19 20 21 21 21 21 20 20 20 20 19 19 19 18 18 18 17 17 16 16 16 16 16 16 15 15 15 15 15 15 14 14 14 14 14 14
19 19 18 18 18 18 19 18 19 20 20 20 20 20 20 20 20 20 20 20 20 20 19 19 19 18 18 18 17 17 17 16 16 16 16 16 15 15 15 15 15 15 15 14 14 14 14 14 14
19 18 18 18 18 18 18 18 19 19 18 19 19 19 19 20 20 20 20 20 19 19 19 19 18 18 18 18 17 17 17 16 16 16 16 16 15 15 15 15 15 15 15 15 14 14 14 14 14
20 19 17 18 18 18 18 18 17 18 18 18 18 18 19 19 19 19 19 19 19 19 18 18 18 18 17 17 17 17 16 16 16 16 16 15 15 15 15 15 15 15 15 14 14 14 14 14 14
20 20 18 17 17 17 17 18 19 19 18 18 18 19 19 19 19 19 19 19 18 18 18 18 18 17 17 17 17 16 16 16 16 16 16 15 15 15 15 15 15 15 15 14 14 14 14 14 14
21 21 19 18 18 17 17 18 20 19 19 19 18 19 19 19 19 19 18 18 18 18 18 18 17 17 17 17 16 16 16 16 16 16 15 15 15 15 15 15 15 15 14 14 14 14 14 14 14
Wind_Speed
2 1 2 3 4 3 2 1 2 1 2 5 9 10 9 6 5 7 3 11 12 9 10 11 12 11 11 11 11 11 10 10 10 9 9 9 9 8 8 8 8 7 7 7 7 6 6 6 6
2 2 2 3 3 3 0 2 1 1 5 7 9 9 8 7 6 7 6 11 12 10 11 11 12 12 12 11 11 11 10 10 9 9 8 8 8 8 7 7 7 7 7 7 6 6 6 5 5
1 1 2 3 2 3 4 3 2 2 4 4 5 6 5 5 5 5 10 13 11 10 11 12 13 12 12 12 11 10 10 9 9 8 8 7 7 7 7 7 6 6 6 6 6 6 6 6 6
2 3 3 3 2 3 5 4 3 5 6 6 6 6 4 3 4 9 14 13 12 9 11 13 13 12 12 11 11 10 9 8 8 7 7 6 6 6 6 6 6 6 5 5 5 6 5 5 5
2 3 3 2 1 1 1 2 4 5 4 5 9 7 4 4 11 15 14 12 12 9 10 12 13 12 12 11 10 9 8 7 6 6 5 5 5 5 5 5 5 5 5 5 5 5 6 6 6
3 3 3 2 1 1 1 1 5 9 9 8 9 7 4 6 11 12 13 11 11 10 10 11 13 12 11 11 10 8 7 6 5 3 3 3 3 3 3 3 4 4 5 5 5 6 6 7 7
3 3 3 3 2 1 1 2 5 7 7 5 7 6 5 6 9 12 12 11 9 9 9 8 10 11 11 10 9 7 6 4 2 1 1 2 2 2 2 3 3 4 4 5 6 6 7 8 8
3 4 3 2 3 1 1 2 4 7 6 7 6 8 6 8 9 11 10 9 9 8 7 7 8 8 8 8 8 7 5 3 2 2 3 3 4 4 4 3 4 4 5 6 7 8 9 9 9
3 4 2 4 5 2 1 4 3 5 7 4 4 6 9 12 11 10 8 6 7 8 6 6 6 7 8 7 7 6 5 3 2 3 4 4 4 4 4 4 5 5 6 7 9 10 10 10 8
3 3 4 3 4 4 3 4 4 5 8 7 8 9 11 12 11 10 9 8 8 8 7 6 6 6 7 7 6 5 3 2 2 2 3 4 4 3 2 4 5 6 7 8 10 11 10 8 7
3 4 3 2 3 2 2 2 3 8 7 10 15 15 12 11 10 10 9 8 8 7 7 7 7 7 6 4 4 3 2 1 1 1 3 5 6 5 5 4 6 7 7 7 9 9 8 7 5
2 3 4 3 2 2 2 3 4 6 9 12 16 16 13 12 11 11 10 8 7 7 7 7 7 5 4 4 3 3 2 2 2 3 5 5 4 4 4 3 4 5 5 4 5 5 7 6 6
3 3 3 3 3 3 4 4 4 4 9 12 13 13 13 13 11 10 10 9 8 7 7 7 7 6 4 3 3 4 3 3 3 5 6 6 4 3 3 3 4 5 5 4 4 4 5 5 5
4 3 2 2 1 1 5 3 4 6 11 13 12 11 11 12 11 9 9 9 8 8 7 7 7 6 5 4 3 3 4 4 5 6 6 7 6 4 3 3 3 4 5 5 4 4 4 4 4
3 4 2 2 3 2 5 3 4 9 11 12 11 10 10 9 10 11 11 10 9 9 8 8 7 6 6 5 4 4 5 6 5 5 7 7 7 5 4 3 3 4 6 6 5 5 4 5 5
3 4 1 3 3 3 6 3 4 8 11 9 8 8 8 8 9 9 10 10 10 9 8 8 8 7 7 6 4 4 5 5 5 6 7 7 7 7 5 3 3 4 5 4 4 4 4 4 4
2 3 3 2 2 3 5 4 3 5 9 8 8 7 7 6 5 6 8 9 10 9 9 7 8 7 7 6 5 5 5 5 5 6 6 6 7 7 5 3 3 5 4 4 4 4 3 3 5
4 4 3 3 2 5 5 3 3 4 8 8 7 7 6 5 4 5 7 8 8 8 8 8 7 7 7 5 4 4 4 3 3 4 4 5 6 6 5 3 4 5 4 4 4 4 4 3 3
4 3 2 3 4 5 6 5 3 5 7 7 6 6 6 4 3 4 6 7 7 7 7 7 7 6 5 4 3 3 2 1 1 1 2 4 4 5 5 3 4 4 3 3 4 3 4 4 4
3 3 3 2 4 5 7 5 2 3 5 7 8 7 6 4 4 4 6 6 7 7 6 7 7 6 5 3 3 2 2 1 0 1 1 2 2 3 3 3 3 3 3 5 5 4 3 3 4
3 6 6 6 4 5 8 5 3 2 3 4 4 5 6 7 7 6 6 5 5 6 7 7 7 6 5 5 4 4 4 3 3 2 2 2 0 0 2 2 2 2 2 2 3 3 3 3 4
4 6 8 7 6 2 4 3 3 0 2 2 2 4 5 5 5 5 5 5 5 5 5 7 6 6 5 5 5 4 2 1 2 2 2 2 1 1 1 1 2 1 1 2 3 3 2 2 3
4 4 7 6 5 4 3 5 3 1 2 2 3 4 4 5 6 6 5 5 5 5 6 6 7 6 5 5 5 4 2 1 1 1 1 2 2 2 2 1 1 1 1 2 3 3 2 2 1
4 6 6 5 4 2 2 4 4 5 7 6 5 5 5 5 6 5 4 5 6 6 6 6 7 5 4 5 4 4 2 1 1 2 1 2 2 3 3 2 0 1 1 1 1 2 2 1 1
5 6 3 3 3 2 2 3 5 6 7 9 9 7 6 6 6 6 6 5 6 6 6 6 6 5 4 4 3 2 2 1 1 1 1 1 1 2 3 2 1 1 2 1 1 1 2 1 1
4 6 6 5 4 1 1 3 4 2 5 7 8 8 7 6 6 6 5 5 5 6 6 6 6 4 3 3 2 1 1 1 0 0 0 0 1 3 3 2 2 2 2 1 0 1 2 1 1
5 3 5 6 4 2 1 1 3 3 7 8 8 8 7 7 6 6 5 5 5 5 5 5 5 4 3 2 2 2 2 2 1 1 1 1 1 2 1 1 2 2 2 1 0 1 2 1 2
6 7 5 5 5 3 2 3 6 9 10 9 9 9 7 6 6 6 5 4 4 4 4 5 5 4 3 3 2 3 2 1 1 2 3 3 3 2 2 2 2 2 3 2 1 1 2 2 2
4 4 5 4 5 6 4 6 7 14 14 13 11 10 9 8 7 6 5 4 5 5 5 5 4 4 3 3 3 3 2 2 2 2 3 3 3 3 3 3 2 2 2 2 2 3 2 2 3
6 7 7 6 4 4 5 6 3 13 12 12 11 9 8 8 7 6 6 5 5 5 5 4 4 4 3 3 4 3 3 3 3 3 3 4 4 3 3 3 3 3 3 2 2 3 3 3 4
Wind_Direction
185 120 94 63 63 64 79 242 222 266 41 65 80 85 81 59 82 122 142 132 128 124 120 117 115 112 108 104 100 96 93 89 86 83 79 75 71 67 62 60 57 53 49 44 39 35 32 29 25
130 116 75 66 88 100 219 233 152 112 134 113 86 83 80 75 84 106 121 133 129 127 123 120 117 112 108 105 101 98 94 91 87 82 78 74 70 65 59 52 48 44 39 34 31 26 23 16 13
138 142 85 77 111 151 175 215 170 98 110 100 82 59 70 102 106 114 138 136 129 124 122 124 120 117 112 108 103 100 97 92 87 81 76 70 66 61 55 48 41 37 32 28 25 19 13 8 5
78 52 63 81 124 190 178 200 145 103 72 65 94 66 50 77 114 130 137 134 127 125 128 130 127 124 120 115 110 105 99 92 85 81 75 69 62 57 52 46 39 34 28 23 17 11 6 359 354
67 82 72 94 135 190 206 193 135 106 83 77 92 88 64 53 112 128 136 136 132 131 134 137 135 131 127 122 118 111 105 98 90 80 73 65 55 47 44 37 30 26 20 14 5 356 350 344 340
56 74 90 109 94 100 197 168 107 103 113 108 102 104 98 121 122 134 139 140 139 141 143 145 144 140 135 131 127 123 117 109 99 86 66 51 38 24 17 8 9 12 7 0 350 340 336 333 328
100 91 115 130 111 62 161 125 113 117 127 133 122 102 120 141 138 140 142 142 142 144 146 151 152 150 148 145 143 142 139 132 126 107 11 6 353 340 335 332 345 356 356 350 340 331 324 319 316
125 98 101 139 137 197 202 127 118 118 109 121 116 126 156 172 146 135 137 137 142 149 154 161 165 164 162 163 162 163 166 167 201 287 318 335 330 308 290 299 310 334 346 346 338 331 325 318 312
100 84 139 173 160 186 125 103 89 79 96 85 94 132 155 152 137 127 127 132 150 161 170 170 172 177 179 182 188 185 192 209 255 303 319 342 350 334 296 282 298 325 341 343 339 339 338 331 322
94 125 190 195 175 167 130 112 121 92 89 88 97 116 137 141 141 143 150 159 166 172 181 181 180 188 193 199 195 201 221 244 271 298 335 10 19 10 349 308 324 340 349 350 348 346 347 343 330
139 162 181 184 173 157 115 93 94 119 126 150 148 152 152 150 153 160 168 170 174 173 174 178 180 185 187 193 182 194 212 216 316 5 33 49 50 44 33 22 13 11 9 360 353 360 353 346 338
132 185 186 171 155 127 122 100 103 144 171 167 159 159 159 163 171 176 177 176 167 157 163 167 167 166 173 167 161 159 155 136 80 61 62 61 52 43 35 33 19 14 9 360 355 352 349 346 344
169 195 185 175 151 139 129 121 118 151 155 156 156 159 167 172 178 183 178 172 163 155 160 160 152 150 149 133 131 127 132 122 101 76 69 74 68 45 35 26 20 12 9 6 356 353 353 350 347
171 169 160 162 161 135 134 130 116 165 154 155 160 170 175 175 175 173 169 167 163 161 157 147 141 144 129 119 118 116 119 111 91 73 73 73 74 66 46 28 17 8 2 5 7 1 357 347 348
148 117 75 216 188 176 116 86 166 169 155 157 166 173 175 177 171 174 177 170 167 163 152 146 143 134 123 120 116 111 113 108 89 79 77 72 71 67 58 35 17 1 5 12 14 6 5 4 2
94 88 137 251 174 154 121 156 217 168 153 154 160 163 165 173 174 176 172 165 166 159 153 153 141 131 124 116 107 103 106 103 93 84 74 67 66 64 57 35 11 5 14 14 7 8 2 0 358
71 145 194 259 180 139 124 163 210 157 148 152 158 162 157 159 164 165 162 161 163 160 153 145 134 130 122 112 101 96 96 94 96 88 76 67 62 60 57 37 7 14 16 8 3 12 6 356 350
182 166 182 201 180 121 120 134 160 160 145 151 155 160 159 157 178 164 157 156 154 151 145 140 131 130 120 103 87 71 66 65 80 86 82 75 62 55 52 40 16 23 21 9 3 359 2 355 341
152 153 186 199 168 123 124 123 144 145 131 139 155 162 162 166 168 141 144 145 143 141 140 139 134 134 123 107 102 96 86 71 58 56 89 79 66 57 56 35 18 21 25 11 4 3 3 358 356
153 172 176 157 145 129 116 99 105 115 143 156 159 160 160 147 122 126 130 135 145 148 142 138 139 138 135 129 129 129 123 116 136 347 34 63 76 50 55 47 29 22 23 16 14 21 12 357 14
191 184 175 155 114 95 101 49 8 34 66 97 128 143 150 148 143 140 129 136 141 144 153 151 147 138 129 115 94 70 52 36 22 3 330 308 246 24 38 42 46 33 38 16 8 22 33 7 357
188 188 162 140 114 114 115 137 267 122 60 79 96 121 141 148 141 139 132 132 143 153 146 140 137 129 121 113 108 111 110 114 253 257 271 293 287 279 329 24 46 37 29 9 358 36 36 42 8
186 148 129 120 114 78 63 113 264 169 132 154 146 138 138 149 141 135 133 131 123 121 126 129 127 123 122 117 120 116 113 196 282 305 316 313 314 300 287 313 29 18 8 355 2 14 31 46 43
131 87 76 59 79 95 221 131 218 213 184 170 160 144 134 128 124 123 115 102 93 98 110 116 119 116 119 118 120 125 127 122 25 360 344 319 315 313 295 273 289 303 299 326 339 360 20 20 34
107 104 91 55 51 223 210 141 225 216 177 163 153 143 131 125 121 114 110 107 105 107 113 118 118 112 116 116 119 135 145 140 162 277 290 310 309 299 288 280 260 260 266 267 318 356 351 349 3
159 138 148 156 169 221 32 193 251 201 153 142 136 135 124 118 120 119 121 121 119 118 119 120 121 119 121 120 117 105 103 101 99 262 224 253 252 261 282 287 272 263 266 278 298 338 317 335 329
129 150 156 125 118 103 275 315 352 99 123 129 130 126 128 129 126 120 116 116 120 120 126 131 127 118 121 130 111 76 72 80 54 13 14 338 304 302 300 319 302 290 289 283 263 301 300 307 296
150 149 110 122 142 151 207 215 203 186 170 157 150 148 143 132 123 118 115 117 120 121 118 116 119 119 111 110 105 87 73 61 44 34 10 350 330 325 333 334 318 301 296 291 289 291 299 313 300
157 141 130 123 146 146 182 247 212 186 177 168 167 162 154 143 136 129 122 118 112 103 101 101 102 98 93 95 88 75 62 52 50 33 355 339 337 339 336 323 317 303 290 286 289 286 297 300 299
166 169 152 147 175 160 163 253 250 177 172 163 162 161 156 147 140 131 121 110 101 99 96 96 95 94 96 95 90 84 67 54 45 17 348 346 343 337 329 332 334 325 310 295 286 294 302 291 289
Height
1512 1513 1514 1516 1519 1525 1528 1523 1516 1513 1511 1511 1510 1511 1515 1519 1522 1530 1528 1528 1529 1530 1530 1530 1530 1530 1530 1530 1530 1529 1529 1529 1529 1529 1528 1528 1528 1528 1527 1527 1526 1526 1526 1525 1525 1525 1524 1524 1523
1512 1513 1516 1516 1522 1533 1529 1519 1516 1512 1512 1512 1512 1514 1516 1521 1523 1525 1527 1529 1530 1530 1531 1531 1531 1531 1530 1530 1530 1530 1529 1529 1529 1529 1528 1528 1528 1528 1527 1527 1526 1525 1525 1525 1524 1524 1523 1523 1523
1512 1514 1516 1517 1524 1529 1525 1516 1513 1511 1511 1511 1514 1517 1520 1523 1524 1526 1528 1530 1530 1531 1532 1531 1531 1531 1531 1531 1531 1530 1530 1529 1529 1529 1529 1528 1528 1527 1527 1526 1526 1525 1524 1524 1523 1523 1522 1522 1522
1513 1515 1516 1521 1523 1519 1516 1513 1511 1512 1512 1513 1515 1520 1523 1525 1525 1527 1529 1531 1531 1532 1532 1533 1532 1532 1532 1532 1531 1531 1530 1530 1530 1529 1529 1529 1528 1527 1527 1526 1525 1524 1523 1523 1522 1522 1521 1521 1521
1513 1514 1519 1524 1521 1516 1513 1512 1511 1512 1513 1516 1516 1522 1526 1527 1527 1529 1530 1532 1532 1533 1533 1534 1533 1533 1533 1532 1532 1532 1531 1531 1530 1530 1529 1529 1528 1528 1527 1526 1525 1524 1523 1522 1521 1521 1520 1520 1520
1513 1514 1524 1527 1522 1516 1513 1512 1512 1513 1516 1518 1519 1523 1528 1530 1530 1531 1532 1533 1534 1534 1534 1535 1535 1534 1534 1534 1533 1533 1532 1532 1531 1531 1530 1530 1529 1528 1527 1526 1525 1524 1523 1522 1521 1520 1520 1519 1519
1514 1517 1523 1524 1523 1518 1514 1512 1512 1514 1516 1518 1519 1523 1528 1531 1531 1532 1533 1534 1535 1535 1536 1536 1536 1536 1535 1535 1535 1534 1534 1533 1532 1532 1531 1530 1529 1528 1527 1526 1525 1524 1523 1522 1521 1520 1520 1519 1518
1513 1517 1522 1523 1523 1519 1513 1512 1513 1514 1517 1519 1520 1523 1528 1530 1532 1533 1534 1535 1536 1536 1537 1537 1537 1537 1536 1536 1536 1535 1535 1534 1534 1533 1532 1531 1530 1529 1528 1526 1525 1524 1523 1522 1521 1520 1519 1519 1518
1513 1521 1525 1522 1520 1517 1513 1513 1515 1515 1516 1519 1520 1522 1525 1529 1532 1534 1535 1536 1537 1537 1537 1538 1538 1538 1537 1537 1537 1537 1536 1535 1534 1533 1532 1531 1530 1529 1528 1527 1525 1524 1523 1522 1521 1520 1519 1518 1517
1513 1522 1520 1515 1514 1514 1513 1514 1515 1517 1518 1521 1522 1524 1527 1530 1532 1533 1535 1536 1536 1537 1538 1538 1538 1538 1538 1538 1538 1537 1537 1536 1535 1534 1533 1532 1530 1529 1528 1527 1526 1524 1523 1522 1521 1519 1518 1518 1517
1513 1517 1515 1513 1512 1512 1513 1514 1515 1518 1521 1521 1522 1524 1527 1530 1532 1534 1535 1536 1537 1538 1538 1538 1539 1539 1539 1539 1539 1538 1537 1536 1536 1535 1533 1532 1531 1529 1528 1527 1526 1524 1523 1522 1520 1519 1518 1517 1516
1514 1513 1512 1511 1511 1512 1513 1515 1517 1517 1519 1520 1521 1524 1527 1530 1532 1533 1534 1536 1537 1538 1538 1539 1539 1540 1540 1540 1539 1539 1538 1537 1536 1535 1534 1533 1531 1530 1528 1527 1526 1524 1523 1521 1520 1518 1518 1517 1516
1513 1513 1512 1511 1511 1512 1514 1516 1517 1518 1519 1521 1524 1525 1527 1529 1531 1533 1535 1536 1537 1538 1539 1540 1540 1540 1540 1540 1540 1539 1539 1538 1537 1536 1534 1533 1532 1530 1529 1527 1526 1524 1522 1521 1519 1518 1517 1516 1515
1511 1511 1511 1511 1512 1513 1515 1517 1518 1519 1520 1522 1524 1526 1528 1529 1531 1533 1535 1536 1537 1538 1539 1540 1541 1541 1541 1541 1541 1540 1539 1539 1538 1536 1535 1533 1532 1531 1529 1528 1526 1524 1522 1521 1519 1518 1517 1516 1515
1511 1513 1514 1513 1513 1514 1515 1520 1519 1519 1521 1522 1524 1526 1528 1530 1531 1533 1534 1536 1537 1539 1540 1541 1541 1542 1542 1541 1541 1541 1540 1539 1538 1537 1535 1534 1532 1531 1529 1528 1526 1524 1523 1521 1519 1518 1517 1516 1515
1512 1517 1522 1515 1513 1515 1519 1527 1519 1519 1520 1522 1524 1526 1528 1530 1531 1532 1534 1536 1537 1539 1540 1541 1542 1542 1542 1542 1542 1541 1541 1540 1539 1538 1536 1534 1533 1531 1530 1528 1526 1525 1523 1521 1520 1518 1517 1516 1515
1519 1525 1524 1518 1513 1514 1519 1524 1519 1519 1520 1522 1524 1526 1528 1529 1531 1533 1534 1536 1537 1539 1540 1541 1542 1542 1542 1542 1542 1542 1541 1540 1540 1538 1537 1535 1533 1532 1530 1528 1527 1525 1524 1522 1520 1519 1517 1516 1515
1525 1525 1523 1521 1515 1515 1520 1522 1520 1520 1521 1522 1524 1526 1528 1529 1531 1533 1534 1536 1538 1539 1541 1541 1542 1543 1543 1543 1542 1542 1542 1541 1540 1539 1538 1536 1534 1532 1531 1529 1527 1526 1524 1523 1521 1520 1518 1517 1515
1517 1521 1522 1519 1514 1517 1522 1523 1522 1521 1521 1523 1525 1526 1528 1529 1532 1533 1535 1536 1538 1539 1540 1541 1542 1543 1543 1543 1543 1542 1542 1541 1541 1540 1538 1537 1535 1533 1532 1530 1528 1527 1525 1524 1522 1520 1519 1517 1516
1517 1522 1523 1518 1515 1519 1524 1526 1524 1523 1522 1523 1525 1526 1528 1530 1531 1533 1534 1536 1537 1539 1540 1541 1542 1543 1543 1543 1543 1543 1542 1542 1541 1540 1539 1538 1536 1535 1533 1531 1529 1528 1526 1525 1523 1522 1520 1519 1517
1517 1519 1520 1520 1518 1520 1525 1534 1531 1527 1525 1525 1526 1526 1528 1529 1531 1533 1534 1536 1537 1538 1540 1541 1542 1543 1543 1543 1543 1543 1543 1542 1542 1541 1540 1539 1537 1536 1534 1532 1531 1529 1527 1526 1524 1523 1521 1520 1519
1519 1511 1513 1518 1526 1535 1531 1549 1537 1531 1529 1527 1527 1527 1528 1530 1531 1533 1534 1535 1537 1539 1540 1541 1542 1543 1544 1544 1544 1543 1543 1542 1542 1541 1540 1539 1538 1537 1535 1534 1532 1530 1529 1527 1526 1524 1523 1522 1521
1512 1508 1513 1519 1527 1536 1536 1546 1543 1532 1533 1531 1528 1528 1528 1530 1531 1533 1534 1535 1537 1539 1540 1541 1543 1543 1544 1544 1544 1544 1543 1542 1542 1541 1540 1539 1538 1537 1536 1534 1533 1531 1530 1528 1527 1526 1524 1523 1522
1508 1513 1519 1525 1532 1547 1540 1545 1545 1536 1531 1529 1528 1528 1529 1530 1531 1533 1534 1536 1538 1539 1540 1541 1542 1543 1544 1544 1544 1543 1543 1542 1541 1541 1540 1539 1538 1537 1536 1535 1534 1532 1531 1529 1528 1527 1525 1524 1523
1513 1525 1540 1546 1551 1550 1537 1541 1540 1526 1524 1525 1526 1528 1529 1530 1531 1533 1534 1536 1538 1539 1540 1541 1542 1543 1543 1544 1543 1543 1543 1542 1541 1540 1540 1539 1538 1537 1536 1535 1534 1532 1531 1530 1529 1527 1526 1525 1524
1515 1521 1539 1551 1554 1550 1539 1543 1533 1522 1523 1524 1525 1527 1529 1530 1531 1533 1534 1536 1537 1539 1540 1541 1542 1542 1543 1543 1543 1543 1542 1542 1541 1540 1539 1539 1538 1537 1536 1535 1534 1533 1532 1530 1529 1528 1527 1526 1524
1515 1521 1521 1534 1542 1550 1547 1539 1530 1524 1525 1525 1526 1528 1529 1530 1532 1533 1535 1536 1537 1539 1540 1541 1541 1542 1542 1543 1543 1542 1542 1541 1541 1540 1539 1538 1537 1536 1535 1534 1533 1532 1531 1530 1529 1528 1527 1526 1525
1507 1513 1525 1535 1548 1555 1549 1544 1539 1530 1527 1526 1526 1527 1529 1530 1532 1534 1535 1536 1538 1539 1540 1541 1541 1542 1542 1542 1542 1542 1541 1541 1540 1540 1539 1538 1537 1536 1535 1534 1533 1532 1531 1530 1529 1528 1526 1526 1524
1509 1514 1520 1531 1534 1549 1556 1544 1517 1519 1519 1522 1524 1526 1528 1530 1532 1533 1535 1536 1538 1539 1540 1540 1541 1541 1541 1542 1542 1541 1541 1540 1540 1539 1538 1537 1536 1535 1534 1533 1532 1531 1530 1528 1527 1526 1525 1524 1523
1500 1506 1515 1529 1535 1537 1543 1537 1509 1511 1515 1518 1522 1526 1528 1530 1532 1533 1535 1536 1537 1538 1539 1540 1540 1541 1541 1541 1541 1541 1540 1539 1538 1537 1536 1535 1534 1533 1532 1531 1530 1529 1528 1527 1526 1525 1524 1523 1522